This is the latest recevied weather packets stored in our database for station/object K4BHH. If no packets are shown the sender has not sent any weather packets the latest 10 day(s).
| Time | Temp. | Humidity | Pressure | Rain* | Wind** | Luminosity | Snow |
|---|---|---|---|---|---|---|---|
| 1777788159 | 7.78° C | 88% | 1020 hPa | 0 mm | - | - | - |
| 1777786957 | 7.78° C | 87% | 1020 hPa | 0 mm | - | - | - |
| 1777786356 | 7.78° C | 87% | 1020 hPa | 0 mm | - | - | - |
| 1777785755 | 7.78° C | 86% | 1020 hPa | 0 mm | - | - | - |
| 1777783952 | 8.89° C | 80% | 1019.6 hPa | 0 mm | - | - | - |
| 1777782149 | 9.44° C | 77% | 1019.3 hPa | 0 mm | - | - | - |
| 1777769943 | 14.44° C | 55% | 1016.6 hPa | 0 mm | - | - | - |
| 1777768109 | 15.56° C | 56% | 1016.6 hPa | 0 mm | - | - | - |
| 1777763270 | 17.22° C | 44% | 1015.6 hPa | 0 mm | - | - | - |
| 1777760203 | 18.33° C | 38% | 1015.2 hPa | 0 mm | - | - | - |
| 1777754794 | 17.78° C | 45% | 1015.2 hPa | 0 mm | - | - | - |
| 1777754193 | 18.33° C | 38% | 1015.6 hPa | 0 mm | - | - | - |
| 1777749955 | 18.33° C | 37% | 1015.9 hPa | 0 mm | - | - | - |
| 1777748753 | 18.33° C | 37% | 1015.9 hPa | 0 mm | - | - | - |
| 1777747551 | 18.33° C | 39% | 1016.3 hPa | 0 mm | - | - | - |
| 1777746950 | 18.33° C | 37% | 1016.3 hPa | 0 mm | - | - | - |
| 1777746350 | 18.33° C | 36% | 1016.3 hPa | 0 mm | - | - | - |
| 1777745749 | 18.33° C | 39% | 1016.3 hPa | 0 mm | - | - | - |
| 1777741417 | 17.22° C | 39% | 1016.6 hPa | 0 mm | - | - | - |
| 1777737717 | 15.56° C | 47% | 1017.3 hPa | 0 mm | - | - | - |
| 1777735914 | 15° C | 46% | 1017.3 hPa | 0 mm | - | - | - |
| 1777732878 | 13.89° C | 53% | 1016.6 hPa | 0 mm | - | - | - |
| 1777728070 | 12.78° C | 62% | 1016.6 hPa | 0 mm | - | - | - |
| 1777725004 | 11.11° C | 68% | 1016.6 hPa | 0 mm | - | - | - |
| 1777714062 | 10.56° C | 61% | 1015.2 hPa | 0 mm | - | - | - |
* Rain latest hour (hover to see other rain measurements)
** Current wind speed in m/s (hover to see current wind gust speed)